• In Deutschland
  • Länderverzeichnis
  • Für 7 Tage
  • Wassertemperatur
  • Satellitenkarten
  • Wetterkarte
  • Widgets
  • user-avatar
    Anmelden

    Stündliche Wetter Wlora

    Heute, 21 August, Montag

    Zeit Temperatur Niederschläge Wind Luftdruck Luftfeuchtigkeit
    00:00 +27°C° 0,6 mm 5 m/S 758 mmHg 55%
    01:00 +26°C° 0 mm 7 m/S 758 mmHg 56%
    02:00 +26°C° 0,9 mm 6 m/S 758 mmHg 64%
    03:00 +24°C° 0,9 mm 6 m/S 758 mmHg 72%
    04:00 +24°C° 0,9 mm 6 m/S 758 mmHg 80%
    05:00 +26°C° 0 mm 5 m/S 758 mmHg 76%
    06:00 +26°C° 0 mm 4 m/S 758 mmHg 73%
    07:00 +27°C° 0 mm 3 m/S 758 mmHg 69%
    08:00 +29°C° 0 mm 3 m/S 758 mmHg 59%
    09:00 +32°C° 0 mm 4 m/S 758 mmHg 49%
    10:00 +33°C° 0 mm 5 m/S 758 mmHg 39%
    11:00 +34°C° 0 mm 5 m/S 758 mmHg 39%
    12:00 +34°C° 0 mm 6 m/S 758 mmHg 39%
    13:00 +35°C° 0 mm 7 m/S 757 mmHg 38%
    14:00 +34°C° 0 mm 7 m/S 757 mmHg 40%
    15:00 +34°C° 0 mm 7 m/S 757 mmHg 42%
    16:00 +34°C° 0 mm 7 m/S 757 mmHg 44%
    17:00 +32°C° 0 mm 7 m/S 757 mmHg 50%
    18:00 +29°C° 0 mm 7 m/S 757 mmHg 56%
    19:00 +27°C° 0 mm 7 m/S 758 mmHg 62%
    20:00 +27°C° 0 mm 7 m/S 758 mmHg 66%
    21:00 +26°C° 0 mm 7 m/S 758 mmHg 69%
    22:00 +24°C° 0 mm 7 m/S 759 mmHg 73%
    23:00 +24°C° 0 mm 6 m/S 759 mmHg 72%

    Morgen, 22 August, Dienstag

    Zeit Temperatur Niederschläge Wind Luftdruck Luftfeuchtigkeit
    00:00 +24°C° 0 mm 6 m/S 759 mmHg 71%
    01:00 +25°C° 0 mm 5 m/S 759 mmHg 70%
    02:00 +23°C° 0 mm 5 m/S 759 mmHg 68%
    03:00 +23°C° 0 mm 5 m/S 759 mmHg 66%
    04:00 +23°C° 0 mm 5 m/S 759 mmHg 64%
    05:00 +23°C° 0 mm 5 m/S 759 mmHg 58%
    06:00 +25°C° 0 mm 5 m/S 760 mmHg 52%
    07:00 +26°C° 0 mm 6 m/S 760 mmHg 46%
    08:00 +28°C° 0 mm 6 m/S 760 mmHg 42%
    09:00 +30°C° 0 mm 6 m/S 760 mmHg 38%
    10:00 +32°C° 0 mm 6 m/S 760 mmHg 34%
    11:00 +33°C° 0 mm 7 m/S 760 mmHg 31%
    12:00 +34°C° 0 mm 7 m/S 760 mmHg 29%
    13:00 +35°C° 0 mm 8 m/S 760 mmHg 27%
    14:00 +34°C° 0 mm 8 m/S 760 mmHg 26%
    15:00 +34°C° 0 mm 9 m/S 759 mmHg 26%
    16:00 +34°C° 0 mm 9 m/S 759 mmHg 26%
    17:00 +32°C° 0 mm 9 m/S 759 mmHg 32%
    18:00 +29°C° 0 mm 8 m/S 760 mmHg 38%
    19:00 +26°C° 0 mm 8 m/S 760 mmHg 45%
    20:00 +24°C° 0 mm 7 m/S 760 mmHg 46%
    21:00 +24°C° 0 mm 7 m/S 760 mmHg 48%
    22:00 +23°C° 0 mm 6 m/S 761 mmHg 49%
    23:00 +23°C° 0 mm 6 m/S 761 mmHg 45%

    übermorgen, 23 August, Mittwoch

    Zeit Temperatur Niederschläge Wind Luftdruck Luftfeuchtigkeit
    00:00 +23°C° 0 mm 5 m/S 761 mmHg 42%
    01:00 +22°C° 0 mm 5 m/S 761 mmHg 38%
    02:00 +22°C° 0 mm 5 m/S 761 mmHg 35%
    03:00 +22°C° 0 mm 5 m/S 761 mmHg 32%
    04:00 +22°C° 0 mm 4 m/S 761 mmHg 30%
    05:00 +23°C° 0 mm 4 m/S 761 mmHg 29%
    06:00 +26°C° 0 mm 4 m/S 761 mmHg 28%
    07:00 +27°C° 0 mm 4 m/S 761 mmHg 27%
    08:00 +29°C° 0 mm 3 m/S 762 mmHg 28%
    09:00 +30°C° 0 mm 3 m/S 762 mmHg 28%
    10:00 +33°C° 0 mm 3 m/S 762 mmHg 29%
    11:00 +34°C° 0 mm 4 m/S 762 mmHg 28%
    12:00 +34°C° 0 mm 4 m/S 762 mmHg 28%
    13:00 +35°C° 0 mm 5 m/S 761 mmHg 27%
    14:00 +34°C° 0 mm 5 m/S 761 mmHg 27%
    15:00 +34°C° 0 mm 6 m/S 761 mmHg 28%
    16:00 +34°C° 0 mm 6 m/S 761 mmHg 28%
    17:00 +30°C° 0 mm 6 m/S 761 mmHg 32%
    18:00 +28°C° 0 mm 5 m/S 761 mmHg 36%
    19:00 +26°C° 0 mm 5 m/S 762 mmHg 41%
    20:00 +26°C° 0 mm 5 m/S 762 mmHg 40%
    21:00 +25°C° 0 mm 4 m/S 762 mmHg 40%
    22:00 +23°C° 0 mm 4 m/S 762 mmHg 40%
    23:00 +23°C° 0 mm 4 m/S 762 mmHg 39%

    24 August, Donnerstag

    Zeit Temperatur Niederschläge Wind Luftdruck Luftfeuchtigkeit
    00:00 +24°C° 0 mm 3 m/S 762 mmHg 39%
    01:00 +24°C° 0 mm 3 m/S 762 mmHg 38%
    02:00 +24°C° 0 mm 3 m/S 762 mmHg 37%
    03:00 +22°C° 0 mm 3 m/S 762 mmHg 37%
    04:00 +22°C° 0 mm 4 m/S 762 mmHg 36%
    05:00 +25°C° 0 mm 3 m/S 762 mmHg 35%
    06:00 +26°C° 0 mm 3 m/S 763 mmHg 33%
    07:00 +27°C° 0 mm 3 m/S 763 mmHg 32%
    08:00 +30°C° 0 mm 3 m/S 763 mmHg 29%
    09:00 +33°C° 0 mm 3 m/S 763 mmHg 27%
    10:00 +35°C° 0 mm 3 m/S 763 mmHg 24%
    11:00 +35°C° 0 mm 3 m/S 763 mmHg 23%
    12:00 +36°C° 0 mm 4 m/S 763 mmHg 22%
    13:00 +36°C° 0 mm 5 m/S 763 mmHg 21%
    14:00 +36°C° 0 mm 5 m/S 762 mmHg 22%
    15:00 +36°C° 0 mm 5 m/S 762 mmHg 23%
    16:00 +35°C° 0 mm 5 m/S 762 mmHg 24%
    17:00 +33°C° 0 mm 5 m/S 762 mmHg 28%
    18:00 +30°C° 0 mm 5 m/S 762 mmHg 32%
    19:00 +28°C° 0 mm 4 m/S 762 mmHg 36%
    20:00 +27°C° 0 mm 4 m/S 763 mmHg 36%
    21:00 +27°C° 0 mm 4 m/S 763 mmHg 36%
    22:00 +26°C° 0 mm 4 m/S 763 mmHg 35%
    23:00 +26°C° 0 mm 3 m/S 763 mmHg 35%

    25 August, Freitag

    Zeit Temperatur Niederschläge Wind Luftdruck Luftfeuchtigkeit
    00:00 +26°C° 0 mm 3 m/S 763 mmHg 35%
    01:00 +26°C° 0 mm 3 m/S 763 mmHg 35%
    02:00 +25°C° 0 mm 3 m/S 763 mmHg 34%
    03:00 +25°C° 0 mm 3 m/S 763 mmHg 34%
    04:00 +25°C° 0 mm 3 m/S 763 mmHg 33%
    05:00 +26°C° 0 mm 3 m/S 763 mmHg 32%
    06:00 +27°C° 0 mm 3 m/S 763 mmHg 30%
    07:00 +29°C° 0 mm 2 m/S 763 mmHg 29%
    08:00 +31°C° 0 mm 2 m/S 763 mmHg 26%
    09:00 +34°C° 0 mm 2 m/S 763 mmHg 23%
    10:00 +36°C° 0 mm 1 m/S 763 mmHg 19%
    11:00 +37°C° 0 mm 2 m/S 763 mmHg 19%
    12:00 +37°C° 0 mm 2 m/S 763 mmHg 19%
    13:00 +38°C° 0 mm 3 m/S 763 mmHg 19%
    14:00 +37°C° 0 mm 3 m/S 762 mmHg 20%
    15:00 +37°C° 0 mm 3 m/S 762 mmHg 21%
    16:00 +37°C° 0 mm 3 m/S 762 mmHg 23%
    17:00 +34°C° 0 mm 3 m/S 762 mmHg 27%
    18:00 +31°C° 0 mm 3 m/S 762 mmHg 31%
    19:00 +29°C° 0 mm 3 m/S 762 mmHg 36%
    20:00 +28°C° 0 mm 2 m/S 762 mmHg 35%
    21:00 +28°C° 0 mm 2 m/S 762 mmHg 35%
    22:00 +27°C° 0 mm 2 m/S 763 mmHg 35%
    23:00 +27°C° 0 mm 2 m/S 763 mmHg 35%

    26 August, Samstag

    Zeit Temperatur Niederschläge Wind Luftdruck Luftfeuchtigkeit
    00:00 +26°C° 0 mm 2 m/S 762 mmHg 35%
    01:00 +26°C° 0 mm 2 m/S 762 mmHg 35%
    02:00 +26°C° 0 mm 2 m/S 762 mmHg 35%
    03:00 +25°C° 0 mm 2 m/S 762 mmHg 36%
    04:00 +25°C° 0 mm 2 m/S 762 mmHg 37%
    05:00 +26°C° 0 mm 2 m/S 762 mmHg 36%
    06:00 +28°C° 0 mm 2 m/S 762 mmHg 35%
    07:00 +29°C° 0 mm 2 m/S 763 mmHg 34%
    08:00 +31°C° 0 mm 2 m/S 762 mmHg 30%
    09:00 +34°C° 0 mm 1 m/S 762 mmHg 26%
    10:00 +36°C° 0 mm 1 m/S 762 mmHg 22%
    11:00 +37°C° 0 mm 2 m/S 762 mmHg 21%
    12:00 +38°C° 0 mm 2 m/S 762 mmHg 21%
    13:00 +38°C° 0 mm 3 m/S 761 mmHg 20%
    14:00 +38°C° 0 mm 3 m/S 761 mmHg 22%
    15:00 +37°C° 0 mm 3 m/S 761 mmHg 23%
    16:00 +37°C° 0 mm 2 m/S 761 mmHg 25%
    17:00 +34°C° 0 mm 2 m/S 761 mmHg 30%
    18:00 +31°C° 0 mm 2 m/S 761 mmHg 35%
    19:00 +29°C° 0 mm 2 m/S 761 mmHg 40%
    20:00 +28°C° 0 mm 2 m/S 761 mmHg 39%
    21:00 +28°C° 0 mm 2 m/S 761 mmHg 39%
    22:00 +28°C° 0 mm 2 m/S 762 mmHg 39%
    23:00 +27°C° 0 mm 2 m/S 762 mmHg 39%
    Mehr zeigen